Zurück zum Katalog

STARLINK-31674

AktivKommunikationVLEO
NORAD 59517·PAYLOAD·🇺🇸 United States

Gestartet Apr 17, 2024 von Cape Canaveral Space Force Station

Loading…

Nächste Überflüge (nächste 24 Stunden)

TLE

AktuellSource: CelesTrak SupGP

Epoche: Sep 15, 2026, 02:40 UTC

1 59517C 24073G   26258.11159722  .00043067  00000+0  15592-2 0  2585
2 59517  43.0019 328.1800 0001454 269.9160 184.4693 15.27572022    14

Verfolge STARLINK-31674 in Echtzeit mit AllMySat

Download on the App Store